TimeAKDT,TemperatureF,Dew PointF,Humidity,Sea Level PressureIn,VisibilityMPH,Wind Direction,Wind SpeedMPH,Gust SpeedMPH,PrecipitationIn,Events,Conditions,WindDirDegrees,DateUTC
12:07 AM,50.0,50.0,100,30.47,0.2,Calm,Calm,-,N/A,Fog,Fog,0,2012-10-06 08:07:00
12:53 AM,48.9,48.9,100,30.47,0.2,Calm,Calm,-,N/A,Fog,Fog,0,2012-10-06 08:53:00
1:53 AM,48.9,48.9,100,30.47,0.2,Calm,Calm,-,N/A,Fog,Fog,0,2012-10-06 09:53:00
2:06 AM,50.0,50.0,100,30.47,0.2,Calm,Calm,-,N/A,Fog,Fog,0,2012-10-06 10:06:00
2:53 AM,48.9,48.9,100,30.46,0.2,Calm,Calm,-,N/A,Fog,Fog,0,2012-10-06 10:53:00
3:53 AM,50.0,50.0,100,30.45,0.2,Calm,Calm,-,N/A,Fog,Fog,0,2012-10-06 11:53:00
4:17 AM,50.0,50.0,100,30.45,0.8,Calm,Calm,-,N/A,,Mist,0,2012-10-06 12:17:00
4:24 AM,50.0,50.0,100,30.45,1.5,Calm,Calm,-,N/A,,Overcast,0,2012-10-06 12:24:00
4:32 AM,50.0,50.0,100,30.45,2.5,Calm,Calm,-,N/A,,Overcast,0,2012-10-06 12:32:00
4:53 AM,50.0,50.0,100,30.44,2.0,Calm,Calm,-,N/A,,Overcast,0,2012-10-06 12:53:00
5:00 AM,50.0,50.0,100,30.44,1.8,Calm,Calm,-,N/A,,Overcast,0,2012-10-06 13:00:00
5:14 AM,48.2,48.2,100,30.44,2.0,West,3.5,-,N/A,,Overcast,270,2012-10-06 13:14:00
5:53 AM,48.9,48.9,100,30.43,4.0,Calm,Calm,-,N/A,,Overcast,0,2012-10-06 13:53:00
6:53 AM,48.9,48.9,100,30.42,2.5,Calm,Calm,-,0.00,,Overcast,0,2012-10-06 14:53:00
7:06 AM,48.2,48.2,100,30.42,1.5,Calm,Calm,-,N/A,,Overcast,0,2012-10-06 15:06:00
7:13 AM,48.2,48.2,100,30.42,1.0,Calm,Calm,-,N/A,,Overcast,0,2012-10-06 15:13:00
7:21 AM,48.2,48.2,100,30.42,0.8,Calm,Calm,-,N/A,,Overcast,0,2012-10-06 15:21:00
7:53 AM,48.9,48.9,100,30.42,0.5,Calm,Calm,-,N/A,Fog,Fog,0,2012-10-06 15:53:00
8:14 AM,48.2,48.2,100,30.41,0.2,Calm,Calm,-,N/A,Fog,Fog,0,2012-10-06 16:14:00
8:33 AM,48.2,48.2,100,30.42,0.5,SW,3.5,-,N/A,Fog,Fog,220,2012-10-06 16:33:00
8:53 AM,48.9,48.9,100,30.43,0.8,WSW,4.6,-,N/A,,Overcast,240,2012-10-06 16:53:00
9:14 AM,48.2,48.2,100,30.42,1.0,WSW,4.6,-,N/A,,Overcast,240,2012-10-06 17:14:00
9:24 AM,48.2,48.2,100,30.43,0.8,WSW,4.6,-,N/A,,Overcast,240,2012-10-06 17:24:00
9:34 AM,48.2,48.2,100,30.42,1.5,WSW,4.6,-,N/A,,Overcast,240,2012-10-06 17:34:00
9:40 AM,48.2,48.2,100,30.42,3.0,SW,3.5,-,N/A,,Overcast,230,2012-10-06 17:40:00
9:53 AM,48.9,48.9,100,30.43,5.0,Calm,Calm,-,N/A,,Overcast,0,2012-10-06 17:53:00
10:05 AM,48.2,48.2,100,30.42,5.0,Calm,Calm,-,N/A,,Overcast,0,2012-10-06 18:05:00
10:20 AM,48.2,48.2,100,30.42,5.0,Calm,Calm,-,N/A,,Overcast,0,2012-10-06 18:20:00
10:53 AM,48.9,48.9,100,30.42,6.0,SSW,3.5,-,N/A,,Overcast,210,2012-10-06 18:53:00
11:14 AM,48.2,48.2,100,30.41,6.0,SW,6.9,-,N/A,,Overcast,220,2012-10-06 19:14:00
11:17 AM,48.2,48.2,100,30.41,6.0,SW,5.8,-,N/A,,Overcast,220,2012-10-06 19:17:00
11:40 AM,48.2,48.2,100,30.42,6.0,WSW,9.2,-,N/A,,Overcast,240,2012-10-06 19:40:00
11:49 AM,48.2,48.2,100,30.42,2.5,WSW,6.9,-,N/A,,Overcast,240,2012-10-06 19:49:00
11:53 AM,48.0,48.0,100,30.43,2.5,SW,5.8,-,N/A,,Overcast,220,2012-10-06 19:53:00
12:02 PM,48.2,46.4,93,30.42,3.0,SW,5.8,-,N/A,,Overcast,230,2012-10-06 20:02:00
12:13 PM,48.2,48.2,100,30.42,2.5,SW,4.6,-,N/A,,Overcast,230,2012-10-06 20:13:00
12:27 PM,48.2,48.2,100,30.43,4.0,WSW,3.5,-,N/A,,Overcast,240,2012-10-06 20:27:00
12:37 PM,48.2,48.2,100,30.42,2.5,SW,4.6,-,N/A,,Overcast,220,2012-10-06 20:37:00
12:45 PM,48.2,46.4,93,30.42,1.8,WSW,3.5,-,N/A,,Overcast,240,2012-10-06 20:45:00
12:53 PM,48.0,48.0,100,30.43,1.5,SW,3.5,-,N/A,,Overcast,220,2012-10-06 20:53:00
1:12 PM,48.2,46.4,93,30.42,2.5,SW,3.5,-,N/A,,Overcast,230,2012-10-06 21:12:00
1:15 PM,48.2,46.4,93,30.42,3.0,Calm,Calm,-,0.00,Rain,Light Rain,0,2012-10-06 21:15:00
1:23 PM,48.2,46.4,93,30.42,5.0,WSW,3.5,-,0.00,Rain,Light Rain,240,2012-10-06 21:23:00
1:36 PM,48.2,48.2,100,30.42,3.0,WSW,3.5,-,0.00,Rain,Light Rain,240,2012-10-06 21:36:00
1:44 PM,48.2,46.4,93,30.42,5.0,WSW,3.5,-,0.00,,Overcast,250,2012-10-06 21:44:00
1:53 PM,48.0,46.9,96,30.42,7.0,West,3.5,-,0.00,Rain,Light Rain,280,2012-10-06 21:53:00
2:53 PM,48.9,46.9,93,30.42,10.0,Calm,Calm,-,0.00,,Overcast,0,2012-10-06 22:53:00
3:53 PM,48.9,46.9,93,30.40,10.0,Calm,Calm,-,0.00,,Overcast,0,2012-10-06 23:53:00
4:09 PM,48.2,46.4,93,30.40,10.0,Calm,Calm,-,N/A,,Overcast,0,2012-10-07 00:09:00
4:17 PM,48.2,46.4,93,30.41,10.0,Calm,Calm,-,N/A,,Overcast,0,2012-10-07 00:17:00
4:53 PM,48.9,46.0,90,30.40,10.0,Calm,Calm,-,N/A,,Overcast,0,2012-10-07 00:53:00
5:02 PM,48.2,46.4,93,30.40,10.0,Calm,Calm,-,N/A,,Overcast,0,2012-10-07 01:02:00
5:45 PM,48.2,46.4,93,30.39,8.0,Calm,Calm,-,N/A,,Overcast,0,2012-10-07 01:45:00
5:53 PM,48.9,46.9,93,30.39,8.0,Calm,Calm,-,N/A,,Overcast,0,2012-10-07 01:53:00
6:53 PM,48.0,46.9,96,30.38,8.0,Calm,Calm,-,N/A,,Overcast,0,2012-10-07 02:53:00
7:53 PM,48.0,46.9,96,30.38,6.0,Calm,Calm,-,N/A,,Overcast,0,2012-10-07 03:53:00
8:04 PM,46.4,46.4,100,30.38,4.0,Calm,Calm,-,N/A,,Overcast,0,2012-10-07 04:04:00
8:18 PM,46.4,46.4,100,30.39,5.0,Calm,Calm,-,N/A,,Overcast,0,2012-10-07 04:18:00
8:45 PM,46.4,46.4,100,30.38,6.0,Calm,Calm,-,N/A,,Overcast,0,2012-10-07 04:45:00
8:53 PM,46.9,46.9,100,30.38,5.0,Calm,Calm,-,N/A,,Overcast,0,2012-10-07 04:53:00
9:14 PM,46.4,46.4,100,30.38,4.0,Calm,Calm,-,N/A,,Overcast,0,2012-10-07 05:14:00
9:32 PM,46.4,46.4,100,30.38,5.0,Calm,Calm,-,N/A,,Overcast,0,2012-10-07 05:32:00
9:46 PM,46.4,46.4,100,30.37,7.0,Calm,Calm,-,N/A,,Overcast,0,2012-10-07 05:46:00
9:53 PM,46.9,46.9,100,30.38,7.0,Calm,Calm,-,N/A,,Overcast,0,2012-10-07 05:53:00
10:10 PM,46.4,46.4,100,30.38,7.0,Calm,Calm,-,N/A,,Overcast,0,2012-10-07 06:10:00
10:31 PM,46.4,46.4,100,30.37,7.0,Calm,Calm,-,N/A,,Overcast,0,2012-10-07 06:31:00
10:53 PM,46.9,46.9,100,30.38,5.0,Calm,Calm,-,N/A,,Overcast,0,2012-10-07 06:53:00
11:15 PM,46.4,46.4,100,30.38,2.5,Calm,Calm,-,N/A,,Overcast,0,2012-10-07 07:15:00
11:29 PM,46.4,46.4,100,30.38,5.0,Calm,Calm,-,N/A,,Overcast,0,2012-10-07 07:29:00
11:53 PM,46.9,46.0,97,30.38,9.0,Calm,Calm,-,N/A,,Overcast,0,2012-10-07 07:53:00